Tracking 25710 objects as of 6-Jul-2022
HD Live streaming from Space Station
objects crossing your sky now

DMSP 5D-2 F13 DEB

Track DMSP 5D-2 F13 DEB now!
10-day predictions


NORAD ID: 40517
Int'l Code: 1995-015DD
Perigee: 785.3 km
Apogee: 829.4 km
Inclination: 98.7 °
Period: 100.9 minutes
Semi major axis: 7178 km
RCS: Unknown
Launch date: March 24, 1995
Source: United States (US)
Launch site: AIR FORCE WESTERN TEST RANGE (AFWTR)

Note: This is SATELLITE DEBRIS
aabbcc
Your satellite tracking list
Your tracking list is empty




NASA's NSSDC Master Catalog

Two Line Element Set (TLE):
1 40517U 95015DD  22186.31406679  .00001891  00000-0  78382-3 0  9992
2 40517  98.6805 209.8559 0030727 109.8056 250.6442 14.27478024378674
Source of the keplerian elements: AFSPC